Weather History for Hamilton Island, QU

Change the Weather History Date:

Monday, December 23, 2013

  Actual Average Record
Temperature  
Mean Temperature 79 °F -  
Max Temperature 83 °F - - ()
Min Temperature 75 °F - - ()
Cooling Degree Days 14    
Growing Degree Days 29 (Base 50)    
Moisture  
Dew Point 67 °F    
Average Humidity 65    
Maximum Humidity 74    
Minimum Humidity 47    
Precipitation  
Precipitation 0.00 in - - ()
Sea Level Pressure  
Sea Level Pressure 29.92 in    
Wind  
Wind Speed 16 mph ()    
Max Wind Speed 22 mph    
Max Gust Speed -    
Visibility 6.2 miles    
Events      
T = Trace of Precipitation, MM = Missing Value Source: Averaged Metar Reports

Daily Weather History Graph

Daily Weather History Graph

Search for Another Location

Airport:

Trip Planner

Search our weather history database for the weather conditions in past years. The results will help you decide how hot, cold, wet, or windy it might be!

Date:

Astronomy

Dec. 23, 2013 Rise Set
Actual Time 5:22 AM EST 6:44 PM EST
Civil Twilight 4:57 AM EST 7:08 PM EST
Nautical Twilight 4:28 AM EST 7:38 PM EST
Astronomical Twilight 3:57 AM EST 8:08 PM EST
Moon 10:36 PM EST (12/23) 9:57 AM EST (12/23)
Length of Visible Light 14h 11m
Length of Day
13h 22m
Waning Gibbous, 73% of the Moon is Illuminated
Dec 23
Waning Gibbous
Dec 25
Last Quarter
Jan 1
New
Jan 8
First Quarter
Jan 16
Full

Hourly Weather History & Observations

Time (EST) Temp. Heat Index Dew Point Humidity Pressure Visibility Wind Dir Wind Speed Gust Speed Precip Events Conditions
12:00 AM 78 °F - 69 °F 66% 29.93 in - East 17.3 mph - -  
12:00 AM 78.8 °F - 68.0 °F 69% 29.92 in 6.2 mi East 17.3 mph - N/A   Unknown
12:30 AM 77.0 °F - 68.0 °F 74% 29.92 in 6.2 mi East 19.6 mph - N/A   Unknown
1:00 AM 77.0 °F - 68.0 °F 74% 29.92 in 6.2 mi East 17.3 mph - N/A   Unknown
1:30 AM 77.0 °F - 68.0 °F 74% 29.89 in 6.2 mi East 16.1 mph - N/A   Unknown
2:00 AM 77.0 °F - 66.2 °F 69% 29.89 in 6.2 mi East 18.4 mph - N/A   Unknown
2:30 AM 77.0 °F - 66.2 °F 69% 29.89 in 6.2 mi East 17.3 mph - N/A   Unknown
3:00 AM 77 °F - 66 °F 60% 29.90 in - ENE 15.0 mph - -  
3:00 AM 77.0 °F - 66.2 °F 69% 29.89 in 6.2 mi ENE 15.0 mph - N/A   Unknown
3:30 AM 77.0 °F - 68.0 °F 74% 29.89 in 6.2 mi ENE 16.1 mph - N/A   Unknown
4:00 AM 77.0 °F - 68.0 °F 74% 29.89 in 6.2 mi ENE 13.8 mph - N/A   Unknown
4:30 AM 77.0 °F - 68.0 °F 74% 29.89 in 6.2 mi East 20.7 mph - N/A   Unknown
5:00 AM 77.0 °F - 68.0 °F 74% 29.89 in 6.2 mi East 21.9 mph - N/A   Unknown
5:30 AM 77.0 °F - 66.2 °F 69% 29.92 in 6.2 mi East 18.4 mph - N/A   Unknown
6:00 AM 78 °F - 67 °F 61% 29.92 in - East 20.7 mph - -  
6:00 AM 78.8 °F - 68.0 °F 69% 29.92 in 6.2 mi East 20.7 mph - N/A   Unknown
6:30 AM 78.8 °F - 66.2 °F 65% 29.92 in 6.2 mi East 20.7 mph - N/A   Unknown
7:00 AM 78.8 °F - 66.2 °F 65% 29.95 in 6.2 mi East 18.4 mph - N/A   Unknown
7:30 AM 80.6 °F 83.2 °F 68.0 °F 65% 29.95 in 6.2 mi East 19.6 mph - N/A   Unknown
8:00 AM 80.6 °F 82.7 °F 66.2 °F 61% 29.95 in 6.2 mi ESE 17.3 mph - N/A   Unknown
8:30 AM 82.4 °F 83.9 °F 64.4 °F 54% 29.95 in 6.2 mi East 16.1 mph - N/A   Unknown
9:00 AM 81 °F - 64 °F 47% 29.96 in - East 16.1 mph - -  
9:00 AM 80.6 °F 82.3 °F 64.4 °F 58% 29.95 in 6.2 mi East 16.1 mph - N/A   Unknown
9:30 AM 80.6 °F 82.7 °F 66.2 °F 61% 29.95 in 6.2 mi East 16.1 mph - N/A   Unknown
10:00 AM 82.4 °F 85.4 °F 68.0 °F 62% 29.95 in 6.2 mi East 16.1 mph - N/A   Unknown
10:30 AM 82.4 °F 84.6 °F 66.2 °F 58% 29.95 in 6.2 mi East 16.1 mph - N/A   Unknown
11:00 AM 82.4 °F 85.4 °F 68.0 °F 62% 29.95 in 6.2 mi East 16.1 mph - N/A   Unknown
11:30 AM 82.4 °F 85.4 °F 68.0 °F 62% 29.95 in 6.2 mi East 15.0 mph - N/A   Unknown
12:00 PM 83 °F - 69 °F 53% 29.94 in - East 16.1 mph - -  
12:00 PM 82.4 °F 85.4 °F 68.0 °F 62% 29.95 in 6.2 mi East 16.1 mph - N/A   Unknown
12:30 PM 82.4 °F 86.3 °F 69.8 °F 66% 29.92 in 6.2 mi East 18.4 mph - N/A   Unknown
1:00 PM 82.4 °F 85.4 °F 68.0 °F 62% 29.92 in 6.2 mi East 18.4 mph - N/A   Unknown
1:30 PM 82.4 °F 84.6 °F 66.2 °F 58% 29.92 in 6.2 mi East 18.4 mph - N/A   Unknown
2:00 PM 82.4 °F 84.6 °F 66.2 °F 58% 29.92 in 6.2 mi East 17.3 mph - N/A   Unknown
2:30 PM 80.6 °F 82.7 °F 66.2 °F 61% 29.92 in 6.2 mi East 17.3 mph - N/A   Unknown
3:00 PM 82 °F - 66 °F 50% 29.90 in - East 17.3 mph - -  
3:00 PM 82.4 °F 84.6 °F 66.2 °F 58% 29.89 in 6.2 mi East 17.3 mph - N/A   Unknown
3:30 PM 80.6 °F 82.3 °F 64.4 °F 58% 29.89 in 6.2 mi East 16.1 mph - N/A   Unknown
4:00 PM 80.6 °F 82.7 °F 66.2 °F 61% 29.89 in 6.2 mi East 16.1 mph - N/A   Unknown
4:30 PM 80.6 °F 82.7 °F 66.2 °F 61% 29.89 in 6.2 mi East 16.1 mph - N/A   Unknown
5:00 PM 78.8 °F - 66.2 °F 65% 29.89 in 6.2 mi East 17.3 mph - N/A   Unknown
5:30 PM 78.8 °F - 66.2 °F 65% 29.92 in 6.2 mi East 17.3 mph - N/A   Unknown
6:00 PM 79 °F - 66 °F 56% 29.91 in - East 17.3 mph - -  
6:00 PM 78.8 °F - 66.2 °F 65% 29.92 in 6.2 mi East 17.3 mph - N/A   Unknown
6:30 PM 78.8 °F - 66.2 °F 65% 29.92 in 6.2 mi East 17.3 mph - N/A   Unknown
7:00 PM 78.8 °F - 66.2 °F 65% 29.92 in 6.2 mi East 17.3 mph - N/A   Unknown
7:30 PM 78.8 °F - 66.2 °F 65% 29.92 in 6.2 mi East 15.0 mph - N/A   Unknown
8:00 PM 78.8 °F - 66.2 °F 65% 29.95 in 6.2 mi East 15.0 mph - N/A   Unknown
8:30 PM 78.8 °F - 66.2 °F 65% 29.95 in 6.2 mi East 15.0 mph - N/A   Unknown
9:00 PM 78 °F - 67 °F 61% 29.94 in - East 15.0 mph - -  
9:00 PM 77.0 °F - 68.0 °F 74% 29.95 in 6.2 mi East 15.0 mph - N/A   Unknown
9:30 PM 77.0 °F - 68.0 °F 74% 29.95 in 6.2 mi East 12.7 mph - N/A   Unknown
10:00 PM 77.0 °F - 66.2 °F 69% 29.95 in 6.2 mi East 15.0 mph - N/A   Unknown
10:30 PM 77.0 °F - 66.2 °F 69% 29.95 in 6.2 mi East 12.7 mph - N/A   Unknown
11:00 PM 77.0 °F - 68.0 °F 74% 29.95 in 6.2 mi ENE 12.7 mph - N/A   Unknown
11:30 PM 77.0 °F - 66.2 °F 69% 29.95 in 6.2 mi East 13.8 mph - N/A   Unknown